Weather History for Erie, CO

Change the Weather History Date:

Friday, January 4, 2013

  Actual Average (KBJC) Record (KBJC)
Temperature  
Mean Temperature 28 °F -  
Max Temperature 48 °F 45 °F 66 °F (2001)
Min Temperature 8 °F 24 °F 3 °F (1993)
Degree Days  
Heating Degree Days 37    
Moisture  
Dew Point 11 °F    
Average Humidity 57    
Maximum Humidity 90    
Minimum Humidity 16    
Precipitation  
Precipitation 0.00 in - - ()
Sea Level Pressure  
Sea Level Pressure 30.07 in    
Wind  
Wind Speed 2 mph (South)    
Max Wind Speed 7 mph    
Max Gust Speed -    
Visibility 10 miles    
Events      
Averages and records for this station are not official NWS values.
T = Trace of Precipitation, MM = Missing Value Source: NWS Daily Summary

Daily Weather History Graph

Daily Weather History Graph

Search for Another Location

Airport:

Trip Planner

Search our weather history database for the weather conditions in past years. The results will help you decide how hot, cold, wet, or windy it might be!

Date:

Astronomy

Jan. 04, 2013 Rise Set
Actual Time 7:22 AM MST 4:48 PM MST
Civil Twilight 6:52 AM MST 5:18 PM MST
Nautical Twilight 6:18 AM MST 5:52 PM MST
Astronomical Twilight 5:45 AM MST 6:25 PM MST
Moon No Moon Rise 11:06 AM MST (1/4)
Length of Visible Light 10h 26m
Length of Day
9h 26m
Waning Gibbous, 54% of the Moon is Illuminated
Jan 4
Waning Gibbous
Jan 4
Last Quarter
Jan 11
New
Jan 18
First Quarter
Jan 26
Full

Hourly Weather History & Observations

Time (MST) Temp. Windchill Dew Point Humidity Pressure Visibility Wind Dir Wind Speed Gust Speed Precip Events Conditions
12:16 AM 9.5 °F - 3.6 °F 77% 30.18 in 10.0 mi Calm Calm - N/A   Clear
12:36 AM 8.4 °F 1.8 °F 3.4 °F 80% 30.18 in 10.0 mi SSW 3.5 mph - N/A   Clear
12:56 AM 9.9 °F 3.4 °F 4.1 °F 78% 30.18 in 10.0 mi SSW 3.5 mph - N/A   Clear
1:16 AM 9.1 °F - 3.7 °F 79% 30.18 in 10.0 mi Calm Calm - N/A   Clear
1:36 AM 8.2 °F - 3.7 °F 82% 30.18 in 10.0 mi Calm Calm - N/A   Clear
1:56 AM 10.0 °F 3.6 °F 3.7 °F 76% 30.18 in 10.0 mi SSW 3.5 mph - N/A   Clear
2:16 AM 9.1 °F - 3.9 °F 79% 30.18 in 10.0 mi Calm Calm - N/A   Clear
9:36 AM 30.2 °F - 12.0 °F 47% 30.15 in 10.0 mi Calm Calm - N/A   Clear
9:56 AM 33.8 °F - 10.2 °F 38% 30.16 in 10.0 mi Calm Calm - N/A   Clear
10:16 AM 36.0 °F - 9.3 °F 33% 30.15 in 10.0 mi Calm Calm - N/A   Clear
10:36 AM 37.0 °F - 8.2 °F 30% 30.15 in 10.0 mi Calm Calm - N/A   Clear
10:56 AM 38.7 °F - 8.6 °F 29% 30.14 in 10.0 mi Calm Calm - N/A   Clear
11:16 AM 40.5 °F - 9.3 °F 28% 30.12 in 10.0 mi Calm Calm - N/A   Clear
11:36 AM 42.6 °F 40.9 °F 10.8 °F 27% 30.11 in 10.0 mi South 3.5 mph - N/A   Clear
11:56 AM 44.6 °F 42.2 °F 7.0 °F 21% 30.09 in 10.0 mi South 4.6 mph - N/A   Clear
12:16 PM 45.3 °F 44.0 °F 3.9 °F 18% 30.08 in 10.0 mi South 3.5 mph - N/A   Clear
12:36 PM 46.2 °F - 2.1 °F 16% 30.07 in 10.0 mi Calm Calm - N/A   Clear
12:56 PM 46.9 °F - 3.2 °F 17% 30.05 in 10.0 mi Calm Calm - N/A   Clear
1:16 PM 46.6 °F - 4.5 °F 18% 30.04 in 10.0 mi Calm Calm - N/A   Clear
1:36 PM 48.2 °F - 5.0 °F 17% 30.03 in 10.0 mi SE 3.5 mph - N/A   Clear
1:56 PM 46.9 °F - 6.1 °F 19% 30.02 in 10.0 mi NE 5.8 mph - N/A   Clear
2:16 PM 46.4 °F 44.3 °F 11.8 °F 25% 30.02 in 10.0 mi NE 4.6 mph - N/A   Clear
2:36 PM 45.5 °F 43.2 °F 13.8 °F 28% 30.02 in 10.0 mi NE 4.6 mph - N/A   Clear
2:56 PM 45.0 °F 41.8 °F 14.5 °F 29% 30.01 in 10.0 mi NNE 5.8 mph - N/A   Clear
3:16 PM 44.8 °F 43.3 °F 10.9 °F 25% 30.01 in 10.0 mi NNE 3.5 mph - N/A   Clear
3:36 PM 44.1 °F - 10.9 °F 26% 30.01 in 10.0 mi Calm Calm - N/A   Clear
3:56 PM 43.0 °F 41.3 °F 15.4 °F 33% 30.01 in 10.0 mi North 3.5 mph - N/A   Clear
4:16 PM 40.8 °F 37.8 °F 17.8 °F 40% 30.01 in 10.0 mi NNE 4.6 mph - N/A   Clear
4:36 PM 38.7 °F - 18.0 °F 43% 30.01 in 10.0 mi Calm Calm - N/A   Clear
4:56 PM 34.9 °F - 18.7 °F 52% 30.01 in 10.0 mi Calm Calm - N/A   Clear
5:16 PM 32.0 °F - 18.9 °F 58% 30.01 in 10.0 mi Calm Calm - N/A   Clear
5:36 PM 28.4 °F - 19.4 °F 69% 30.02 in 10.0 mi Calm Calm - N/A   Clear
5:56 PM 27.5 °F 23.6 °F 18.9 °F 70% 30.02 in 10.0 mi SSW 3.5 mph - N/A   Clear
6:16 PM 26.6 °F 22.6 °F 18.1 °F 70% 30.02 in 10.0 mi SSW 3.5 mph - N/A   Clear
6:36 PM 21.6 °F 15.3 °F 16.2 °F 80% 30.02 in 10.0 mi SSW 4.6 mph - N/A   Clear
6:56 PM 23.2 °F - 17.1 °F 77% 30.02 in 10.0 mi Calm Calm - N/A   Clear
7:16 PM 24.1 °F 19.7 °F 17.2 °F 75% 30.02 in 10.0 mi South 3.5 mph - N/A   Clear
7:36 PM 23.7 °F - 16.2 °F 73% 30.03 in 10.0 mi Calm Calm - N/A   Clear
7:56 PM 21.7 °F - 15.1 °F 76% 30.02 in 10.0 mi Calm Calm - N/A   Clear
8:16 PM 20.1 °F - 15.4 °F 82% 30.03 in 10.0 mi Calm Calm - N/A   Clear
8:36 PM 18.7 °F - 14.2 °F 83% 30.03 in 10.0 mi Calm Calm - N/A   Clear
8:56 PM 17.8 °F 12.5 °F 15.3 °F 90% 30.03 in 10.0 mi SW 3.5 mph - N/A   Clear
9:16 PM 15.3 °F - 12.7 °F 90% 30.03 in 10.0 mi Calm Calm - N/A   Clear
9:36 PM 16.9 °F - 13.1 °F 85% 30.03 in 10.0 mi Calm Calm - N/A   Clear
9:56 PM 15.1 °F - 11.8 °F 87% 30.05 in 10.0 mi Calm Calm - N/A   Clear
10:16 PM 13.8 °F - 10.9 °F 88% 30.05 in 10.0 mi Calm Calm - N/A   Clear
10:36 PM 13.6 °F - 9.9 °F 85% 30.06 in 10.0 mi Calm Calm - N/A   Clear
10:56 PM 14.2 °F - 10.9 °F 87% 30.06 in 10.0 mi Calm Calm - N/A   Clear
11:16 PM 13.5 °F - 10.0 °F 86% 30.06 in 10.0 mi Calm Calm - N/A   Clear
11:36 PM 13.1 °F 7.1 °F 10.2 °F 88% 30.07 in 10.0 mi SSW 3.5 mph - N/A   Clear
11:56 PM 14.0 °F 3.9 °F 10.4 °F 86% 30.05 in 10.0 mi WSW 6.9 mph - N/A   Clear